This is the latest recevied weather packets stored in our database for station/object W0WC. If no packets are shown the sender has not sent any weather packets the latest 10 day(s).
| Time | Temp. | Humidity | Pressure | Rain* | Wind** | Luminosity | Snow |
|---|---|---|---|---|---|---|---|
| 1788056510 | 31.11° C | 38% | 1015.7 hPa | 0 mm | - | 0 W/m² | - |
| 1788056210 | 31.11° C | 38% | 1015.8 hPa | 0 mm | - | 0 W/m² | - |
| 1788055910 | 31.67° C | 38% | 1015.6 hPa | 0 mm | - | 0 W/m² | - |
| 1788055609 | 31.67° C | 38% | 1015.6 hPa | 0 mm | - | 0 W/m² | - |
| 1788055304 | 31.67° C | 38% | 1015.5 hPa | 0 mm | - | 0 W/m² | - |
| 1788055004 | 31.67° C | 38% | 1015.3 hPa | 0 mm | - | 0 W/m² | - |
| 1788054700 | 31.67° C | 38% | 1015 hPa | 0 mm | - | 0 W/m² | - |
| 1788054395 | 32.22° C | 37% | 1015.3 hPa | 0 mm | - | 0 W/m² | - |
| 1788054091 | 32.22° C | 37% | 1014.9 hPa | 0 mm | - | 0 W/m² | - |
| 1788053787 | 32.22° C | 37% | 1015 hPa | 0 mm | - | 0 W/m² | - |
| 1788053482 | 32.22° C | 37% | 1014.9 hPa | 0 mm | - | 0 W/m² | - |
| 1788053182 | 32.78° C | 37% | 1014.8 hPa | 0 mm | - | 0 W/m² | - |
| 1788052879 | 32.78° C | 37% | 1014.7 hPa | 0 mm | - | 0 W/m² | - |
| 1788052578 | 32.78° C | 36% | 1014.8 hPa | 0 mm | - | 0 W/m² | - |
| 1788052274 | 32.78° C | 36% | 1014.9 hPa | 0 mm | - | 0 W/m² | - |
| 1788051969 | 33.33° C | 35% | 1014.9 hPa | 0 mm | - | 0 W/m² | - |
| 1788051664 | 33.89° C | 35% | 1014.9 hPa | 0 mm | - | 1 W/m² | - |
| 1788051362 | 33.89° C | 34% | 1014.9 hPa | 0 mm | - | 2 W/m² | - |
| 1788051061 | 33.89° C | 34% | 1015 hPa | 0 mm | - | 3 W/m² | - |
| 1788050756 | 34.44° C | 33% | 1015 hPa | 0 mm | - | 6 W/m² | - |
| 1788050456 | 35° C | 33% | 1014.8 hPa | 0 mm | - | 10 W/m² | - |
| 1788050151 | 35° C | 32% | 1014.7 hPa | 0 mm | - | 16 W/m² | - |
| 1788049845 | 35° C | 32% | 1014.7 hPa | 0 mm | - | 23 W/m² | - |
| 1788049538 | 35.56° C | 31% | 1014.8 hPa | 0 mm | - | 33 W/m² | - |
| 1788049245 | 35.56° C | 31% | 1014.8 hPa | 0 mm | - | 39 W/m² | - |
* Rain latest hour (hover to see other rain measurements)
** Current wind speed in m/s (hover to see current wind gust speed)